Location: Ansan
(43.6898°N, 0.7731°E)
Time: 12:31:11
(UTC+00:00)

Cosmos 2237 Rocket - Pass Details

Date: 15 May 2026
Orbit: 833 x 849 km, 71.0° (Epoch: 8 June)

Event Time Altitude Azimuth Distance (km) Brightness Sun altitude
Rises 22:37:14 0° 342° (NNW) 3,418 6.8 -24.9°
Reaches altitude 10° 22:40:07 10° 355° (N) 2,476 5.6 -25.1°
Maximum altitude 22:44:49 26° 51° (NE) 1,609 3.8 -25.3°
Enters shadow 22:47:02 20° 85° (E) 1,834 3.8 -25.4°
